CPA785 VHHH-WADD

Flight info

Callsign CPA785
Flight time N/A
Altitude 35000
Route DALOL V652 UNTUL/N0498F340 V652 SABNO/N0495F350 A583 AKOTA/N0493F360 M754 VINIK M522 ELANG/N0492F370 M522 DOBMA
Aircraft B77W/H-SDE1E2E3FGHIJ2J3J4J5M1RWXY/LB1D1

Departure

Time N/A
Airport Hong Kong International Airport (VHHH)

Arrival

Time 2026-05-07 10:30
Airport Denpasar I Gusti Ngurah Rai International Airport (WADD)
Time Latitude Longitude Altitude Speed Heading
2026-05-07 09:13 -0.47865 114.91923 36773 ft 489 kts 189°
2026-05-07 09:14 -0.54558 114.90651 36770 ft 489 kts 189°
2026-05-07 09:14 -0.61249 114.89379 36772 ft 490 kts 189°
2026-05-07 09:15 -0.67915 114.88112 36770 ft 490 kts 189°
2026-05-07 09:15 -0.74617 114.86838 36776 ft 490 kts 189°
2026-05-07 09:16 -0.81330 114.85562 36766 ft 490 kts 189°
2026-05-07 09:16 -0.88037 114.84287 36772 ft 490 kts 189°
2026-05-07 09:17 -0.94785 114.83422 36769 ft 488 kts 180°
2026-05-07 09:17 -1.01554 114.83586 36776 ft 486 kts 176°
2026-05-07 09:18 -1.08313 114.83858 36773 ft 486 kts 176°
2026-05-07 09:18 -1.15074 114.84104 36766 ft 486 kts 176°
2026-05-07 09:19 -1.21833 114.84325 36781 ft 486 kts 177°
2026-05-07 09:19 -1.28550 114.84534 36771 ft 486 kts 177°
2026-05-07 09:20 -1.35321 114.84746 36772 ft 487 kts 177°
2026-05-07 09:20 -1.42098 114.84959 36772 ft 487 kts 177°
2026-05-07 09:21 -1.48884 114.85173 36772 ft 487 kts 177°
2026-05-07 09:21 -1.55664 114.85388 36775 ft 488 kts 177°
2026-05-07 09:22 -1.62405 114.85601 36772 ft 488 kts 177°
2026-05-07 09:22 -1.69196 114.85815 36771 ft 488 kts 177°
2026-05-07 09:23 -1.75995 114.86030 36772 ft 488 kts 177°
2026-05-07 09:23 -1.82774 114.86244 36779 ft 487 kts 177°
2026-05-07 09:24 -1.89553 114.86458 36776 ft 487 kts 177°
2026-05-07 09:24 -1.96293 114.86671 36774 ft 487 kts 177°
2026-05-07 09:25 -2.03070 114.86885 36774 ft 487 kts 177°
2026-05-07 09:25 -2.09844 114.87099 36777 ft 487 kts 177°
2026-05-07 09:26 -2.16621 114.87313 36781 ft 487 kts 177°
2026-05-07 09:26 -2.23403 114.87528 36774 ft 487 kts 177°
2026-05-07 09:27 -2.30193 114.87742 36782 ft 488 kts 177°
2026-05-07 09:28 -2.40337 114.88063 36779 ft 488 kts 177°
2026-05-07 09:28 -2.47135 114.88278 36780 ft 488 kts 177°
2026-05-07 09:29 -2.53886 114.88491 36774 ft 488 kts 177°
2026-05-07 09:29 -2.60681 114.88706 36775 ft 488 kts 177°
2026-05-07 09:30 -2.67471 114.88921 36773 ft 488 kts 177°
2026-05-07 09:30 -2.74252 114.89136 36772 ft 487 kts 177°
2026-05-07 09:31 -2.80997 114.89349 36771 ft 487 kts 177°
2026-05-07 09:31 -2.87776 114.89563 36772 ft 487 kts 177°
2026-05-07 09:32 -2.94544 114.89777 36775 ft 487 kts 177°
2026-05-07 09:32 -3.01327 114.89992 36781 ft 487 kts 177°
2026-05-07 09:33 -3.08108 114.90206 36779 ft 486 kts 177°
2026-05-07 09:33 -3.14871 114.90421 36781 ft 486 kts 177°
2026-05-07 09:34 -3.21592 114.90633 36781 ft 486 kts 177°
2026-05-07 09:34 -3.28357 114.90848 36775 ft 486 kts 177°
2026-05-07 09:35 -3.35121 114.91062 36773 ft 486 kts 177°
2026-05-07 09:35 -3.41906 114.91277 36776 ft 487 kts 177°
2026-05-07 09:36 -3.48682 114.91491 36775 ft 487 kts 177°
2026-05-07 09:36 -3.55419 114.91705 36781 ft 487 kts 177°
2026-05-07 09:37 -3.62204 114.91920 36785 ft 487 kts 177°
2026-05-07 09:37 -3.68982 114.92135 36802 ft 487 kts 177°
2026-05-07 09:38 -3.75747 114.92348 36805 ft 486 kts 177°
2026-05-07 09:38 -3.82490 114.92562 36809 ft 484 kts 177°
2026-05-07 09:39 -3.89226 114.92776 36808 ft 483 kts 177°
2026-05-07 09:39 -3.95936 114.92989 36810 ft 481 kts 178°
2026-05-07 09:40 -4.02629 114.93201 36813 ft 481 kts 178°
2026-05-07 09:40 -4.09277 114.93411 36817 ft 481 kts 178°
2026-05-07 09:41 -4.15968 114.93624 36814 ft 481 kts 178°
2026-05-07 09:41 -4.22665 114.93837 36821 ft 481 kts 178°
2026-05-07 09:42 -4.29367 114.94049 36816 ft 482 kts 178°
2026-05-07 09:42 -4.36084 114.94276 36814 ft 483 kts 177°
2026-05-07 09:43 -4.42805 114.94639 36811 ft 483 kts 176°
2026-05-07 09:43 -4.49486 114.95044 36816 ft 484 kts 176°
2026-05-07 09:44 -4.56217 114.95439 36817 ft 485 kts 176°
2026-05-07 09:44 -4.62966 114.95821 36815 ft 486 kts 177°
2026-05-07 09:45 -4.69731 114.96200 36818 ft 487 kts 177°
2026-05-07 09:45 -4.76501 114.96579 36817 ft 487 kts 177°
2026-05-07 09:46 -4.83285 114.96960 36818 ft 488 kts 177°
2026-05-07 09:46 -4.90026 114.97338 36821 ft 488 kts 177°
2026-05-07 09:47 -4.96816 114.97720 36816 ft 488 kts 177°
2026-05-07 09:47 -5.02508 114.98040 36816 ft 489 kts 177°
2026-05-07 09:48 -5.09299 114.98422 36821 ft 489 kts 177°
2026-05-07 09:48 -5.16045 114.98801 36818 ft 489 kts 177°
2026-05-07 09:49 -5.22844 114.99183 36821 ft 489 kts 177°
2026-05-07 09:49 -5.29627 114.99565 36818 ft 489 kts 177°
2026-05-07 09:50 -5.36417 114.99947 36824 ft 489 kts 177°
2026-05-07 09:50 -5.43215 115.00329 36823 ft 489 kts 177°
2026-05-07 09:51 -5.50007 115.00712 36826 ft 489 kts 177°
2026-05-07 09:51 -5.56803 115.01094 36824 ft 489 kts 177°
2026-05-07 09:52 -5.63601 115.01478 36823 ft 489 kts 177°
2026-05-07 09:52 -5.70352 115.01858 36826 ft 489 kts 177°
2026-05-07 09:53 -5.77148 115.02240 36831 ft 489 kts 177°
2026-05-07 09:53 -5.83953 115.02624 36827 ft 489 kts 177°
2026-05-07 09:54 -5.90764 115.03007 36827 ft 489 kts 177°
2026-05-07 09:54 -5.97531 115.03389 36829 ft 490 kts 177°
2026-05-07 09:55 -6.04375 115.03775 36167 ft 500 kts 177°
2026-05-07 09:55 -6.07861 115.03971 35501 ft 501 kts 177°
2026-05-07 09:55 -6.11327 115.04167 34950 ft 496 kts 177°
2026-05-07 09:55 -6.14762 115.04361 34386 ft 492 kts 177°
2026-05-07 09:56 -6.18181 115.04554 33812 ft 489 kts 177°
2026-05-07 09:56 -6.21563 115.04745 33191 ft 485 kts 177°
2026-05-07 09:56 -6.24922 115.04935 32646 ft 481 kts 177°
2026-05-07 09:56 -6.28251 115.05123 32101 ft 477 kts 177°
2026-05-07 09:57 -6.31551 115.05309 31562 ft 473 kts 177°
2026-05-07 09:57 -6.34823 115.05494 31022 ft 469 kts 177°
2026-05-07 09:57 -6.38036 115.05675 30485 ft 466 kts 177°
2026-05-07 09:57 -6.41258 115.05857 29953 ft 463 kts 177°
2026-05-07 09:58 -6.44465 115.06039 29344 ft 459 kts 177°
2026-05-07 09:58 -6.47644 115.06218 28770 ft 455 kts 177°
2026-05-07 09:58 -6.50796 115.06396 28232 ft 451 kts 177°
2026-05-07 09:58 -6.53919 115.06573 27702 ft 447 kts 177°
2026-05-07 09:59 -6.57018 115.06748 27187 ft 444 kts 177°
2026-05-07 09:59 -6.60094 115.06922 26672 ft 440 kts 177°
2026-05-07 09:59 -6.63136 115.07094 26166 ft 437 kts 177°
2026-05-07 09:59 -6.66171 115.07265 25660 ft 435 kts 177°
2026-05-07 10:00 -6.69181 115.07435 25149 ft 433 kts 177°
2026-05-07 10:00 -6.72188 115.07605 24643 ft 431 kts 177°
2026-05-07 10:00 -6.75136 115.07772 24149 ft 429 kts 177°
2026-05-07 10:00 -6.78118 115.07941 23662 ft 428 kts 177°
2026-05-07 10:01 -6.81088 115.08109 23117 ft 427 kts 177°
2026-05-07 10:01 -6.84037 115.08283 22750 ft 420 kts 177°
2026-05-07 10:01 -6.86923 115.08486 22565 ft 409 kts 176°
2026-05-07 10:01 -6.89739 115.08702 22401 ft 404 kts 176°
2026-05-07 10:02 -6.92542 115.08919 22240 ft 402 kts 176°
2026-05-07 10:02 -6.95321 115.09133 22079 ft 399 kts 176°
2026-05-07 10:02 -6.98083 115.09344 21921 ft 397 kts 176°
2026-05-07 10:02 -7.00800 115.09549 21769 ft 395 kts 176°
2026-05-07 10:03 -7.03539 115.09755 21616 ft 394 kts 176°
2026-05-07 10:03 -7.06263 115.09958 21454 ft 392 kts 176°
2026-05-07 10:03 -7.08986 115.10161 21300 ft 391 kts 176°
2026-05-07 10:03 -7.11703 115.10364 21136 ft 391 kts 176°
2026-05-07 10:04 -7.14411 115.10566 20981 ft 390 kts 176°
2026-05-07 10:04 -7.17119 115.10768 20818 ft 390 kts 176°
2026-05-07 10:04 -7.19823 115.10970 20670 ft 389 kts 176°
2026-05-07 10:04 -7.22526 115.11172 20518 ft 389 kts 176°
2026-05-07 10:05 -7.25227 115.11374 20361 ft 389 kts 176°
2026-05-07 10:05 -7.27925 115.11575 20202 ft 388 kts 176°
2026-05-07 10:05 -7.30623 115.11777 20047 ft 388 kts 176°
2026-05-07 10:05 -7.33282 115.11976 19893 ft 388 kts 176°
2026-05-07 10:06 -7.35969 115.12177 19737 ft 387 kts 176°
2026-05-07 10:06 -7.38656 115.12377 19583 ft 387 kts 176°
2026-05-07 10:06 -7.41333 115.12577 19423 ft 386 kts 176°
2026-05-07 10:06 -7.44015 115.12778 19273 ft 385 kts 176°
2026-05-07 10:07 -7.46696 115.12826 18949 ft 386 kts 185°
2026-05-07 10:07 -7.49330 115.12375 18715 ft 380 kts 195°
2026-05-07 10:07 -7.51824 115.11545 18530 ft 374 kts 202°
2026-05-07 10:07 -7.54221 115.10559 18374 ft 371 kts 202°
2026-05-07 10:08 -7.56605 115.09579 18222 ft 370 kts 202°
2026-05-07 10:08 -7.58959 115.08615 18053 ft 370 kts 202°
2026-05-07 10:08 -7.61349 115.07640 17876 ft 370 kts 202°
2026-05-07 10:08 -7.63737 115.06669 17715 ft 370 kts 202°
2026-05-07 10:09 -7.66124 115.05700 17543 ft 369 kts 202°
2026-05-07 10:09 -7.68507 115.04735 17385 ft 369 kts 202°
2026-05-07 10:09 -7.70885 115.03772 17221 ft 368 kts 202°
2026-05-07 10:09 -7.73261 115.02811 17062 ft 368 kts 202°
2026-05-07 10:10 -7.75633 115.01852 16905 ft 367 kts 202°
2026-05-07 10:10 -7.78005 115.00892 16753 ft 366 kts 202°
2026-05-07 10:10 -7.80370 114.99934 16593 ft 366 kts 202°
2026-05-07 10:10 -7.82729 114.98980 16435 ft 365 kts 202°
2026-05-07 10:11 -7.85088 114.98025 16278 ft 365 kts 202°
2026-05-07 10:11 -7.87438 114.97073 16118 ft 364 kts 202°
2026-05-07 10:11 -7.89760 114.96133 15967 ft 363 kts 202°
2026-05-07 10:11 -7.92104 114.95184 15814 ft 362 kts 202°
2026-05-07 10:12 -7.94444 114.94236 15669 ft 361 kts 202°
2026-05-07 10:12 -7.96771 114.93293 15506 ft 360 kts 202°
2026-05-07 10:12 -7.99095 114.92352 15362 ft 359 kts 202°
2026-05-07 10:12 -8.01410 114.91414 15200 ft 358 kts 202°
2026-05-07 10:13 -8.03716 114.90479 15049 ft 357 kts 202°
2026-05-07 10:13 -8.05939 114.89421 14872 ft 352 kts 214°
2026-05-07 10:13 -8.07698 114.87723 14693 ft 350 kts 233°
2026-05-07 10:13 -8.09082 114.85698 14493 ft 351 kts 236°
2026-05-07 10:14 -8.10448 114.83645 14269 ft 353 kts 236°
2026-05-07 10:14 -8.11824 114.81579 14058 ft 355 kts 235°
2026-05-07 10:14 -8.13210 114.79512 13837 ft 355 kts 235°
2026-05-07 10:14 -8.14599 114.77456 13604 ft 354 kts 235°
2026-05-07 10:15 -8.15983 114.75416 13361 ft 351 kts 235°
2026-05-07 10:15 -8.17341 114.73418 13134 ft 348 kts 234°
2026-05-07 10:15 -8.18707 114.71411 12912 ft 346 kts 235°
2026-05-07 10:15 -8.20066 114.69417 12715 ft 344 kts 235°
2026-05-07 10:16 -8.21418 114.67431 12488 ft 342 kts 235°
2026-05-07 10:16 -8.22765 114.65454 12282 ft 340 kts 235°
2026-05-07 10:16 -8.24256 114.63632 12144 ft 337 kts 218°
2026-05-07 10:16 -8.26322 114.62504 11991 ft 343 kts 195°
2026-05-07 10:17 -8.28701 114.62255 11665 ft 347 kts 174°
2026-05-07 10:17 -8.31013 114.62866 11332 ft 341 kts 157°
2026-05-07 10:17 -8.33176 114.63819 11006 ft 337 kts 155°
2026-05-07 10:17 -8.35302 114.64781 10684 ft 333 kts 155°
2026-05-07 10:18 -8.37402 114.65726 10355 ft 330 kts 155°
2026-05-07 10:18 -8.39492 114.66655 10030 ft 327 kts 155°
2026-05-07 10:18 -8.41566 114.67564 9837 ft 320 kts 155°
2026-05-07 10:18 -8.43561 114.68433 9727 ft 310 kts 155°
2026-05-07 10:19 -8.45510 114.69281 9646 ft 299 kts 155°
2026-05-07 10:19 -8.47393 114.70101 9520 ft 290 kts 155°
2026-05-07 10:19 -8.49226 114.70902 9350 ft 283 kts 155°
2026-05-07 10:19 -8.51023 114.71687 9071 ft 280 kts 155°
2026-05-07 10:20 -8.52806 114.72466 8759 ft 279 kts 155°
2026-05-07 10:20 -8.54584 114.73244 8466 ft 277 kts 154°
2026-05-07 10:20 -8.56219 114.74229 8106 ft 274 kts 141°
2026-05-07 10:20 -8.57674 114.75467 7786 ft 273 kts 137°
2026-05-07 10:21 -8.59069 114.76730 7358 ft 267 kts 137°
2026-05-07 10:21 -8.60458 114.77984 6745 ft 270 kts 137°
2026-05-07 10:21 -8.61872 114.79247 6449 ft 270 kts 138°
2026-05-07 10:21 -8.63291 114.80499 6105 ft 270 kts 138°
2026-05-07 10:22 -8.64698 114.81733 5870 ft 266 kts 138°
2026-05-07 10:22 -8.66072 114.82932 5629 ft 262 kts 138°
2026-05-07 10:22 -8.67444 114.84124 5438 ft 256 kts 138°
2026-05-07 10:22 -8.68775 114.85280 5220 ft 250 kts 138°
2026-05-07 10:23 -8.70105 114.86435 4851 ft 252 kts 138°
2026-05-07 10:23 -8.71424 114.87579 4583 ft 244 kts 138°
2026-05-07 10:23 -8.72683 114.88669 4327 ft 232 kts 137°
2026-05-07 10:23 -8.73878 114.89703 4104 ft 220 kts 137°
2026-05-07 10:24 -8.74969 114.90756 3870 ft 213 kts 122°
2026-05-07 10:24 -8.75452 114.92113 3736 ft 201 kts 97°
2026-05-07 10:24 -8.75516 114.93509 3505 ft 196 kts 91°
2026-05-07 10:24 -8.75516 114.94866 3330 ft 189 kts 91°
2026-05-07 10:25 -8.75516 114.96175 3147 ft 189 kts 91°
2026-05-07 10:25 -8.75518 114.97482 2947 ft 183 kts 92°
2026-05-07 10:25 -8.75522 114.98737 2758 ft 174 kts 92°
2026-05-07 10:25 -8.75507 114.99910 2568 ft 161 kts 89°
2026-05-07 10:26 -8.75460 115.01038 2436 ft 161 kts 89°
2026-05-07 10:26 -8.75413 115.02183 2320 ft 162 kts 90°
2026-05-07 10:26 -8.75367 115.03311 2130 ft 156 kts 89°
2026-05-07 10:26 -8.75323 115.04361 1999 ft 142 kts 91°
2026-05-07 10:27 -8.75284 115.05352 1861 ft 143 kts 91°
2026-05-07 10:27 -8.75245 115.06366 1796 ft 144 kts 90°
2026-05-07 10:27 -8.75206 115.07365 1757 ft 144 kts 90°
2026-05-07 10:27 -8.75166 115.08375 1677 ft 145 kts 90°
2026-05-07 10:28 -8.75127 115.09382 1455 ft 141 kts 90°
2026-05-07 10:28 -8.75089 115.10369 1244 ft 141 kts 91°
2026-05-07 10:28 -8.75050 115.11376 981 ft 143 kts 91°
2026-05-07 10:28 -8.75013 115.12345 741 ft 136 kts 89°
2026-05-07 10:29 -8.74976 115.13304 541 ft 139 kts 89°
2026-05-07 10:29 -8.74936 115.14305 339 ft 144 kts 91°
2026-05-07 10:29 -8.74900 115.15313 100 ft 141 kts 90°
2026-05-07 10:30 -8.74834 115.16959 33 ft 73 kts 88°
2026-05-07 10:30 -8.74822 115.17240 32 ft 19 kts 88°
2026-05-07 10:30 -8.74759 115.17315 33 ft 14 kts 11°
2026-05-07 10:30 -8.74669 115.17289 37 ft 14 kts 306°
2026-05-07 10:31 -8.74659 115.17189 37 ft 14 kts 267°
2026-05-07 10:31 -8.74664 115.17087 37 ft 14 kts 267°
2026-05-07 10:31 -8.74669 115.16988 37 ft 10 kts 267°
2026-05-07 10:31 -8.74649 115.16941 37 ft 7 kts 337°
2026-05-07 10:32 -8.74599 115.16935 37 ft 7 kts 356°
2026-05-07 10:32 -8.74556 115.16934 38 ft 4 kts 358°
2026-05-07 10:32 -8.74543 115.16933 38 ft 0 kts 358°